Location: Hermaringen
(48.5952°N, 10.2585°E)
Time: 09:38:02
(UTC+00:00)

A-11 Canister half - Pass Details

Date: 25 February 2026
Orbit: 1513 x 1687 km, 47.2° (Epoch: 11 March)

Event Time Altitude Azimuth Distance (km) Brightness Sun altitude
Rises 17:45:21 0° 218° (SW) 4,918 12.3 -8.9°
Reaches altitude 10° 17:48:41 10° 212° (SSW) 3,940 11.7 -9.4°
Maximum altitude 17:58:07 46° 144° (SE) 2,162 9.5 -11.0°
Enters shadow 18:06:22 14° 79° (ENE) 3,608 10.3 -12.3°
